TimeEDT,TemperatureF,Dew PointF,Humidity,Sea Level PressureIn,VisibilityMPH,Wind Direction,Wind SpeedMPH,Gust SpeedMPH,PrecipitationIn,Events,Conditions,WindDirDegrees,DateUTC
12:00 AM,36.9,30.0,76,29.95,-9999.0,East,4.6,-,N/A,,Unknown,80,2013-04-07 04:00:00
1:00 AM,36.7,29.5,75,29.91,-9999.0,NE,3.5,-,N/A,,Unknown,50,2013-04-07 05:00:00
2:00 AM,36,29,67,29.88,,WNW,1.2,,,,,290,2013-04-07 06:00:00
2:00 AM,36.3,28.9,75,29.88,-9999.0,WNW,1.2,-,N/A,,Unknown,290,2013-04-07 06:00:00
3:00 AM,35.4,29.1,78,29.84,-9999.0,Calm,Calm,-,N/A,,Unknown,0,2013-04-07 07:00:00
4:00 AM,35.6,29.7,79,29.79,-9999.0,NE,1.2,-,N/A,,Unknown,50,2013-04-07 08:00:00
5:00 AM,34.5,29.3,81,29.78,-9999.0,WNW,1.2,-,N/A,,Unknown,290,2013-04-07 09:00:00
6:00 AM,39.4,31.5,73,29.71,-9999.0,NNE,3.5,-,N/A,,Unknown,20,2013-04-07 10:00:00
7:00 AM,46.9,31.3,55,29.68,-9999.0,SW,2.3,-,N/A,,Unknown,230,2013-04-07 11:00:00
8:00 AM,53,33,33,29.68,,SW,8.1,,,,,230,2013-04-07 12:00:00
8:00 AM,53.2,31.5,43,29.68,-9999.0,SW,8.1,-,N/A,,Unknown,230,2013-04-07 12:00:00
9:00 AM,55.2,34.0,45,29.65,-9999.0,SW,9.2,-,N/A,,Unknown,220,2013-04-07 13:00:00
10:00 AM,57.7,35.2,43,29.63,-9999.0,SW,9.2,19.6,N/A,,Unknown,230,2013-04-07 14:00:00
11:00 AM,61.0,39.9,46,29.65,-9999.0,WSW,12.7,31.1,N/A,,Unknown,250,2013-04-07 15:00:00
12:00 PM,64.0,41.4,43,29.65,-9999.0,WSW,13.8,27.6,N/A,,Unknown,250,2013-04-07 16:00:00
1:00 PM,63.3,42.8,47,29.66,-9999.0,WSW,16.1,27.6,N/A,,Unknown,250,2013-04-07 17:00:00
2:00 PM,61,42,39,29.69,,West,18.4,,,,,270,2013-04-07 18:00:00
2:00 PM,61.3,42.4,50,29.69,-9999.0,West,18.4,31.1,N/A,,Unknown,270,2013-04-07 18:00:00
3:00 PM,58.1,39.0,49,29.75,-9999.0,WNW,16.1,28.8,N/A,,Unknown,290,2013-04-07 19:00:00
4:00 PM,53.4,36.3,52,29.82,-9999.0,WNW,15.0,25.3,N/A,,Unknown,290,2013-04-07 20:00:00
5:00 PM,52.9,35.2,51,29.84,-9999.0,West,17.3,27.6,N/A,,Unknown,280,2013-04-07 21:00:00
6:00 PM,51.1,34.7,54,29.89,-9999.0,West,12.7,23.0,N/A,,Unknown,280,2013-04-07 22:00:00
7:00 PM,48.2,34.7,60,29.92,-9999.0,West,9.2,-,N/A,,Unknown,280,2013-04-07 23:00:00
8:00 PM,46,33,49,29.95,,WNW,8.1,,,,,300,2013-04-08 00:00:00
8:00 PM,45.9,32.9,61,29.95,-9999.0,WNW,8.1,-,N/A,,Unknown,300,2013-04-08 00:00:00
9:00 PM,44.8,31.5,60,29.98,-9999.0,WNW,8.1,-,N/A,,Unknown,290,2013-04-08 01:00:00
10:00 PM,44.1,31.3,61,30.01,-9999.0,WNW,5.8,-,N/A,,Unknown,300,2013-04-08 02:00:00
11:00 PM,43.3,30.9,62,30.02,-9999.0,NW,3.5,-,N/A,,Unknown,310,2013-04-08 03:00:00